Location: ???????
(56.2167°N, 38.0500°E)
Time: 11:39:51
(UTC+00:00)

CENTAUR R/B - Pass Details

Date: 19 May 2025
Orbit: 645 x 1537 km, 63.4° (Epoch: 14 June)

Event Time Altitude Azimuth Distance (km) Brightness Sun altitude
Rises 23:15:32 0° 310° (NW) 4,221 6.0 -10.3°
Reaches altitude 10° 23:18:53 10° 297° (WNW) 3,380 5.3 -10.1°
Maximum altitude 23:25:01 23° 250° (WSW) 2,694 4.4 -9.7°
Enters shadow 23:31:26 11° 205° (SSW) 3,630 4.8 -9.2°
